Wind_Speed
4 3 4 3 4 4 5 5 6 6 7 8 9 10 11 11 5 2 1 0 1 1 2 2 2 3 3 4 4 3 4 1 0 6 4 2 4 0 3 6 4 4 4 4 25
1 2 2 3 4 4 5 5 6 8 8 9 10 11 12 11 3 3 1 2 0 1 2 4 3 3 3 2 3 5 4 4 2 3 5 6 5 7 4 4 3 3 4 18 23
1 1 2 3 3 4 5 6 7 7 9 10 11 12 13 8 2 2 2 1 2 4 1 0 1 2 3 3 2 3 4 3 2 1 3 5 2 3 8 3 7 9 10 11 14
5 3 2 3 4 5 5 6 6 8 9 10 12 12 11 2 2 1 1 3 4 3 2 1 3 3 3 2 1 3 1 3 3 1 3 6 2 3 5 5 2 9 13 9 11
7 6 5 4 4 5 6 7 7 8 9 11 11 13 4 3 3 1 2 5 5 4 3 2 3 2 4 2 2 2 1 1 3 4 2 1 3 4 4 1 5 15 11 9 11
9 9 7 7 6 6 6 7 8 9 10 10 11 11 3 2 1 1 3 5 4 2 3 4 2 1 3 2 3 4 0 3 4 3 3 4 2 2 2 6 8 9 9 8 12
11 9 9 8 8 7 7 7 7 8 9 9 9 9 2 7 3 3 4 4 3 2 3 3 2 3 1 2 1 1 3 4 5 4 4 4 5 9 5 8 10 9 8 8 12
11 12 11 10 9 8 8 7 6 7 7 7 8 4 5 3 6 5 4 3 3 3 4 3 3 4 3 1 4 2 3 2 3 7 3 5 7 4 8 12 11 10 8 8 8
11 12 12 12 9 9 9 8 7 7 6 6 3 2 7 1 4 7 6 5 5 4 3 4 3 3 4 5 4 4 3 4 7 6 3 5 6 3 6 9 10 9 9 9 8
13 12 12 12 9 7 8 7 7 10 1 2 1 3 3 3 3 7 7 10 3 4 4 5 5 3 3 4 5 6 4 5 5 4 2 3 11 6 6 8 12 10 10 10 11
17 13 14 11 9 6 5 2 2 2 3 7 6 4 4 4 5 4 6 6 4 5 5 0 4 7 12 10 5 4 4 4 3 4 5 8 9 11 9 7 10 10 12 14 15
19 14 18 12 6 5 4 2 4 2 5 11 6 6 5 8 3 4 9 5 4 5 5 4 8 11 6 5 5 4 4 7 6 4 6 7 11 10 6 8 12 17 14 17 9
19 23 22 14 8 7 9 9 6 2 2 6 8 7 6 13 8 10 13 5 4 7 9 8 6 5 8 5 6 6 7 5 8 1 3 3 7 10 10 7 9 11 16 14 20
10 23 21 17 9 7 7 18 8 3 2 6 6 7 7 7 6 9 20 7 4 12 7 6 6 5 5 6 8 7 7 6 4 2 5 3 8 5 6 11 9 16 13 17 15
11 11 23 28 6 9 2 12 8 3 4 4 3 1 2 9 4 1 4 3 9 8 7 9 7 9 7 7 9 7 4 4 2 3 2 3 4 6 4 8 15 20 12 14 15
10 11 20 27 8 5 5 20 9 1 11 3 2 3 6 2 2 3 3 3 3 5 3 4 0 6 7 3 6 6 5 6 4 3 4 9 8 5 7 12 8 9 7 13 15
12 10 17 22 9 13 18 10 4 6 5 5 4 5 2 4 3 4 7 8 8 6 10 2 4 2 3 5 3 4 7 2 3 1 8 2 5 14 9 10 11 13 8 10 10
17 16 19 30 18 23 23 2 6 7 8 5 4 3 5 6 3 5 7 7 8 2 3 9 7 12 7 10 8 8 8 6 7 5 5 1 7 6 13 12 6 9 8 7 9
19 16 15 22 26 33 8 5 11 10 7 9 5 5 5 4 6 4 6 6 8 11 11 7 6 1 1 4 11 6 8 4 1 1 1 6 8 7 10 10 10 11 4 6 8
11 10 17 19 32 24 7 14 9 9 8 8 15 8 11 7 8 9 10 6 6 14 4 6 2 1 2 4 2 6 8 2 2 2 6 6 6 8 5 12 14 12 9 9 8
7 3 9 26 33 9 9 9 8 5 4 11 18 14 12 10 9 7 8 3 9 9 19 4 4 1 4 7 11 3 5 4 5 5 5 2 7 7 13 12 12 13 10 10 12
5 6 7 34 10 4 16 13 10 7 7 3 3 17 13 11 10 10 16 8 9 10 12 9 3 5 9 3 2 1 4 7 5 6 6 3 18 5 5 6 8 10 8 8 10
4 4 10 24 12 17 8 19 17 9 16 9 10 8 5 10 6 12 8 7 9 11 11 9 4 2 5 4 2 6 8 16 2 3 15 5 13 3 6 5 7 9 7 6 8
4 4 5 7 14 18 24 16 28 16 16 12 14 5 12 13 8 5 7 7 11 11 10 13 6 11 16 6 7 7 10 12 18 10 10 20 21 6 5 7 7 7 6 8 9
5 5 4 6 13 19 22 14 28 18 17 20 13 21 23 14 17 25 22 7 6 8 9 14 13 18 25 7 5 5 15 22 24 33 11 34 20 24 13 10 11 8 6 7 9
4 5 4 8 3 8 23 17 6 24 19 18 21 25 23 24 22 21 20 16 14 4 12 3 15 18 23 19 9 11 11 25 29 30 26 32 31 4 6 5 5 10 10 11 13
15 19 4 10 11 10 5 12 20 22 11 16 24 24 24 26 23 20 1 8 6 17 14 8 13 11 19 14 4 6 39 12 15 21 19 23 39 6 13 14 15 13 11 13 16
Wind_Direction
97 94 87 66 57 51 38 32 24 18 12 6 3 355 350 349 354 75 80 21 330 24 350 356 31 30 59 63 48 95 64 96 241 160 214 204 129 110 109 98 57 1 144 173 152
118 96 76 56 37 26 26 18 11 6 1 358 352 349 344 345 55 82 333 299 167 137 85 43 21 8 43 55 34 80 98 195 198 200 211 181 153 156 120 118 54 48 59 136 151
219 331 0 4 19 11 6 2 2 357 355 353 348 344 337 342 81 277 349 97 139 154 121 332 339 78 67 54 33 143 159 194 245 255 157 167 149 188 122 224 190 186 177 162 163
214 237 286 329 339 344 347 351 354 349 351 354 348 344 341 26 163 225 78 125 140 146 130 84 32 63 86 92 38 97 150 170 169 311 125 158 162 168 171 217 260 172 157 152 159
226 228 245 272 297 321 330 337 345 345 351 352 352 350 3 13 247 181 126 130 127 121 75 87 64 91 112 138 74 112 263 281 162 147 143 146 190 183 220 227 95 132 145 155 161
259 237 237 250 270 292 311 328 340 343 348 352 351 354 13 271 184 196 152 145 135 95 78 53 122 125 101 122 139 171 249 265 223 208 197 188 230 165 220 148 131 147 169 172 174
272 260 244 248 256 271 293 314 331 336 342 346 348 357 342 237 202 177 165 164 152 122 102 79 72 87 100 95 301 65 313 323 227 198 223 148 282 234 181 164 168 179 180 182 190
279 279 269 254 256 266 274 292 314 321 329 334 333 353 248 235 204 194 188 152 150 124 111 104 89 96 93 120 29 34 50 353 286 149 214 135 262 249 173 164 194 195 196 194 200
272 277 278 270 260 266 274 285 300 300 310 308 340 49 270 168 210 199 184 153 129 107 86 110 80 98 51 91 13 355 234 217 313 202 134 171 258 268 162 174 200 203 205 206 206
251 268 272 274 270 275 280 288 297 297 337 266 345 16 247 228 170 175 174 156 115 96 40 54 50 79 53 105 222 206 224 244 233 221 203 206 258 258 197 193 212 207 213 211 209
245 247 255 268 258 277 296 280 4 337 199 194 196 203 141 143 140 180 166 140 100 67 150 45 115 202 202 200 176 163 194 236 253 231 169 233 255 259 212 226 237 226 219 217 217
246 243 241 241 247 242 239 204 208 164 305 238 236 276 186 173 119 223 176 143 148 171 124 55 230 224 195 210 215 232 254 259 272 247 185 258 253 261 229 225 220 227 223 217 186
262 241 228 219 210 221 215 212 158 124 251 276 196 187 192 167 203 191 160 155 159 150 190 174 217 151 168 184 198 228 211 233 232 14 253 307 264 245 256 236 240 241 229 215 200
271 253 227 196 195 201 220 226 166 135 311 263 217 243 146 139 234 175 178 147 184 192 173 227 236 170 169 199 175 240 202 195 201 139 243 152 282 270 249 254 232 245 224 220 193
273 271 234 198 179 179 168 196 156 113 299 247 182 96 165 166 132 244 189 87 174 182 145 227 182 191 194 192 169 229 161 190 191 186 351 230 293 256 244 260 257 254 230 218 193
305 267 247 201 187 189 213 158 123 237 230 253 95 158 136 145 77 96 132 38 153 149 259 227 345 167 199 117 173 136 81 47 50 77 263 226 197 197 210 227 255 260 223 213 193
322 286 229 201 209 181 152 115 105 179 310 206 176 175 174 153 122 145 160 174 168 155 221 123 218 203 151 97 48 107 103 290 315 332 243 334 232 250 260 239 226 256 266 218 189
306 304 243 223 204 176 153 130 206 218 198 103 121 81 192 149 193 161 132 193 243 174 124 188 258 170 188 189 170 201 165 167 220 214 257 345 237 249 234 265 271 275 272 183 170
310 308 244 235 201 178 161 206 201 184 195 155 115 131 232 212 156 140 207 217 202 186 191 176 265 122 137 151 161 203 211 176 61 82 6 224 276 287 252 277 275 258 223 194 182
306 294 250 224 207 187 198 228 212 177 169 167 204 171 184 204 169 179 171 202 219 196 189 209 263 19 199 113 19 167 161 89 24 244 250 262 258 229 219 238 252 266 227 195 183
273 253 243 204 191 209 205 226 225 212 191 176 211 202 200 175 201 201 206 224 196 196 194 172 195 222 128 207 174 152 192 185 147 166 211 283 254 218 210 216 225 240 234 190 186
251 234 220 168 196 234 221 206 171 180 216 233 239 211 191 179 189 205 207 209 182 147 183 204 174 202 201 219 238 303 249 177 154 215 239 220 256 187 195 228 210 252 237 194 188
242 247 222 187 218 222 224 229 225 178 207 185 217 215 163 182 206 212 202 203 177 164 167 164 210 16 323 351 344 217 213 207 74 67 231 187 252 228 182 247 237 246 234 191 174
262 251 205 225 247 228 222 229 224 207 208 216 213 172 211 231 220 245 221 201 196 208 181 164 162 206 233 230 144 201 199 202 209 232 225 238 259 204 205 219 243 240 229 186 186
224 242 226 200 230 233 244 245 225 224 209 203 232 211 222 214 218 234 240 195 219 226 195 175 216 224 242 238 196 213 207 204 209 227 204 253 245 250 234 220 235 228 203 183 192
246 224 261 244 283 229 242 234 238 234 210 213 219 216 218 219 211 224 215 206 210 183 197 211 228 229 255 241 206 233 224 221 214 227 231 252 261 175 214 254 216 215 203 203 206
225 260 268 247 230 249 233 253 238 240 262 258 231 223 224 227 229 240 178 224 221 210 196 172 215 216 238 228 176 263 240 190 214 225 222 239 249 192 256 245 239 232 208 210 216
Height
821 822 822 823 822 821 822 821 821 820 819 818 816 815 813 811 810 809 810 811 810 810 810 808 808 807 806 810 811 818 849 855 841 846 834 825 828 825 825 832 838 839 839 838 843
823 823 822 822 822 822 821 821 821 820 819 818 816 814 812 810 809 809 810 809 809 810 810 809 810 808 814 814 818 831 853 838 830 831 833 827 825 827 830 836 842 842 840 840 843
822 823 823 823 822 822 822 822 820 820 819 818 816 814 812 809 810 810 809 808 809 810 810 810 810 809 816 816 821 828 844 828 828 825 825 827 826 824 834 838 836 838 840 840 842
821 821 822 822 822 822 822 821 820 820 819 817 816 813 810 809 824 809 809 809 810 810 810 811 811 816 824 826 820 829 825 824 825 824 824 828 824 826 828 826 824 827 833 837 839
820 820 821 821 821 822 822 821 821 820 819 817 815 812 811 812 811 809 809 810 810 810 811 812 814 817 827 824 823 827 826 823 824 824 825 824 827 827 827 827 826 828 834 837 839
820 819 819 820 821 821 820 820 821 820 819 817 815 813 814 820 809 809 809 810 810 811 811 812 815 815 820 823 828 826 827 825 824 825 825 828 828 826 825 829 831 832 834 836 837
818 818 818 818 819 819 819 820 819 819 818 817 816 815 816 814 809 809 810 810 811 812 813 814 814 816 820 827 824 826 832 830 827 827 828 827 835 832 825 831 833 834 835 837 836
816 817 817 816 817 817 817 818 818 817 817 817 817 817 816 809 809 809 810 810 812 813 814 815 814 817 821 824 830 833 838 846 826 828 826 829 843 821 826 830 833 835 837 836 834
815 815 817 816 815 815 815 816 816 815 816 816 817 818 817 809 810 809 810 811 812 814 815 815 815 824 827 842 851 848 853 850 838 829 829 833 833 819 827 829 831 834 835 834 834
811 813 815 815 815 814 815 815 815 814 815 816 818 823 812 810 808 809 810 811 813 815 818 819 829 839 844 849 862 853 853 846 841 830 831 835 835 824 826 827 825 829 830 830 829
809 808 813 814 814 814 815 815 817 817 815 810 809 807 807 807 809 810 811 812 814 818 829 826 839 845 836 835 832 835 842 838 832 824 831 834 831 822 822 826 825 825 824 824 822
804 804 811 812 813 814 815 814 812 813 815 803 805 805 803 804 810 810 812 816 818 827 828 837 840 824 827 832 833 836 840 845 835 825 833 829 830 821 817 815 810 808 811 810 817
800 804 807 809 812 812 812 811 810 811 816 802 796 797 799 801 803 807 808 813 818 827 829 834 819 816 825 831 836 836 842 840 835 828 829 831 832 821 805 804 800 797 791 795 799
797 800 802 806 814 808 809 808 809 811 824 804 794 786 789 794 801 795 798 805 816 821 825 826 814 816 826 827 829 838 825 825 828 834 848 830 834 818 806 801 796 785 787 784 791
795 796 797 800 802 805 802 807 810 810 841 789 787 784 785 790 794 798 797 799 811 814 818 814 815 820 820 818 820 825 820 825 827 837 838 838 849 815 800 802 788 771 776 777 782
793 794 796 796 798 800 801 807 809 825 822 787 787 789 791 790 795 799 800 799 801 809 808 809 806 809 807 812 813 820 827 836 845 847 853 829 836 812 801 784 776 767 767 770 774
791 792 793 792 793 798 803 803 830 824 797 789 791 790 790 796 798 798 803 806 808 819 815 812 810 806 807 815 818 820 832 856 860 865 836 826 834 783 779 774 767 759 760 768 770
788 787 786 787 790 795 798 810 820 798 786 778 787 792 793 791 796 800 804 806 800 800 813 813 817 806 803 801 814 824 825 846 851 853 837 829 820 786 769 760 765 764 760 766 772
784 781 780 778 784 788 794 801 773 783 777 777 784 792 797 791 794 798 804 799 790 795 797 813 809 795 797 796 797 823 823 814 830 890 861 815 791 775 770 766 762 760 763 770 773
782 780 771 773 779 781 782 773 767 764 765 762 768 776 789 794 793 798 800 784 782 781 779 785 800 801 798 796 800 802 804 830 844 848 849 808 801 775 765 765 755 756 759 764 769
780 776 759 763 774 768 762 771 759 756 754 759 760 765 767 783 782 788 780 771 771 778 776 779 787 804 799 800 799 805 807 806 812 828 825 825 780 757 746 748 749 747 749 758 763
776 769 755 757 763 753 747 746 750 752 755 756 753 751 758 765 772 779 770 764 762 766 780 775 782 805 798 790 791 788 788 796 808 813 817 806 742 740 740 742 746 743 744 751 755
767 761 754 753 743 746 740 739 739 745 744 751 749 749 748 755 765 761 763 757 759 760 768 771 786 805 795 797 793 793 788 777 787 805 777 795 735 745 740 740 741 741 741 749 755
767 756 750 746 739 735 736 731 732 732 736 743 736 745 748 749 750 752 758 754 755 754 753 752 772 773 764 756 773 786 782 780 776 780 761 753 726 737 735 735 733 739 742 747 751
760 746 738 733 737 729 733 719 725 728 730 734 737 734 739 742 748 746 745 752 750 750 751 749 765 760 745 754 759 761 759 765 766 743 764 712 738 711 726 733 730 730 738 745 748
753 746 738 729 728 725 722 718 733 714 719 724 725 724 723 726 725 726 731 737 739 747 744 750 752 756 754 747 759 757 760 748 746 741 746 728 720 718 720 721 727 728 732 737 738
743 740 738 721 723 726 721 712 710 718 723 719 718 719 716 719 715 712 722 724 727 733 741 751 749 757 748 745 762 764 713 742 741 733 736 738 689 722 717 716 714 718 722 724 725